User: anonymous   Login
Location: Bush Observatory
(40.2653°N, 94.3194°W)
Time: 06:44:05
(UTC-05:00)
Language:

Cosmos 1933 Rocket - Orbit

View from above orbital plane
View from above orbital plane
View from above satellite
View from above satellite

Ground track
Ground track

The orbit data is extracted from the following two-line orbital elements,

1 18959U 88020B   15145.84952490  .00000223  00000-0  24282-4 0  9996
2 18959 082.5387 254.6502 0018508 100.7654 020.1020 14.83133062468910
Epoch (UTC): 25 May 2015 20:23:18
Eccentricity: 0.0018508
inclination: 82.5387°
perigee height: 606 km
apogee height: 632 km
right ascension of ascending node: 254.6502°
argument of perigee: 100.7654°
revolutions per day: 14.83133062
mean anomaly at epoch: 20.1020°
orbit number at epoch: 46891

The dashed part of the orbit path shows where the satellite is in the earth's shadow,  

DLR